RADUGA 23 [-]

Last updated on Tue Jun 27 2023 00:03:02 GMT+0000 (Coordinated Universal Time)

1 19928U 89030A 23176.80619400 -.00000367 00000+0 00000+0 0 9991 2 19928 13.0717 339.6538 0023043 168.6794 172.9127 1.00296174123948
UTC large
Height (km)
Speed (km/s)
/
Latitude / Longitude
Inclination (degrees)
Orbital Period (minutes)
Azimuth
Elevation
Range (km)
Doppler Factor

Next 0 passes for location: London (51.5072 / 0.1276)

Sorry there are no passes over London.
RADUGA 23 [-]